Weather History for KPIR - January, 2014

Change the Weather History Date:

Saturday, January 18, 2014

  Actual Average Record
Temperature  
Mean Temperature 35 °F 20 °F  
Max Temperature 40 °F 30 °F 54 °F (1964)
Min Temperature 29 °F 10 °F -27 °F (1970)
Degree Days  
Heating Degree Days 30 45  
Month to date heating degree days 800 815  
Since 1 July heating degree days 4019 3777  
Cooling Degree Days 0 0  
Month to date cooling degree days 0 0  
Year to date cooling degree days 0 0  
Moisture  
Dew Point 27 °F    
Average Humidity 73    
Maximum Humidity 82    
Minimum Humidity 64    
Precipitation  
Precipitation 0.00 in 0.01 in 0.66 in (1926)
Month to date precipitation 0.09 0.25  
Year to date precipitation 0.09 0.25  
Snow  
Snow 0.00 in 0.10 in 1.40 in (1978)
Month to date snowfall 1.0 2.8  
Since 1 July snowfall 17.2 14.0  
Snow Depth 1.00 in    
Sea Level Pressure  
Sea Level Pressure 29.94 in    
Wind  
Wind Speed 20 mph (NW)    
Max Wind Speed 39 mph    
Max Gust Speed 51 mph    
Visibility 10 miles    
Events Snow    
T = Trace of Precipitation, MM = Missing Value Source: NWS Daily Summary

Daily Weather History Graph

Daily Weather History Graph

Search for Another Location

Airport or City:

Trip Planner

Search our weather history database for the weather conditions in past years. The results will help you decide how hot, cold, wet, or windy it might be!

Date:

Astronomy

Jan. 18, 2014 Rise Set
Actual Time 8:11 AM CST 5:31 PM CST
Civil Twilight 7:39 AM CST 6:03 PM CST
Nautical Twilight 7:04 AM CST 6:39 PM CST
Astronomical Twilight 6:29 AM CST 7:14 PM CST
Moon 8:23 PM CST (1/18) 9:05 AM CST (1/18)
Length of Visible Light 10h 23m
Length of Day
9h 19m
Waning Gibbous, 94% of the Moon is Illuminated
Jan 18
Waning Gibbous
Jan 23
Last Quarter
Jan 30
New
Feb 6
First Quarter
Feb 14
Full

Hourly Weather History & Observations

Time (CST) Temp. Windchill Dew Point Humidity Pressure Visibility Wind Dir Wind Speed Gust Speed Precip Events Conditions
12:53 AM 39.0 °F 28.0 °F 28.0 °F 65% 29.73 in 10.0 mi WNW 25.3 mph 33.4 mph N/A   Clear
1:53 AM 37.9 °F 25.9 °F 28.0 °F 68% 29.73 in 10.0 mi NW 28.8 mph 36.8 mph N/A   Clear
2:53 AM 37.0 °F 25.4 °F 28.0 °F 70% 29.76 in 10.0 mi NW 25.3 mph 32.2 mph N/A   Mostly Cloudy
3:53 AM 37.0 °F 24.1 °F 28.0 °F 70% 29.75 in 10.0 mi WNW 32.2 mph 43.7 mph N/A   Clear
4:53 AM 37.0 °F 24.1 °F 28.0 °F 70% 29.76 in 10.0 mi NW 32.2 mph 42.6 mph N/A   Overcast
5:53 AM 37.0 °F 23.5 °F 28.0 °F 70% 29.79 in 10.0 mi NW 35.7 mph 44.9 mph 0.00 in   Overcast
6:53 AM 37.0 °F 23.9 °F 28.0 °F 70% 29.83 in 10.0 mi NW 33.4 mph 42.6 mph N/A   Overcast
7:53 AM 37.0 °F 24.3 °F 27.0 °F 67% 29.87 in 10.0 mi NW 31.1 mph 38.0 mph N/A   Overcast
8:53 AM 36.0 °F 23.7 °F 27.0 °F 70% 29.94 in 10.0 mi NW 26.5 mph 38.0 mph N/A   Overcast
9:50 AM 33.8 °F 21.0 °F 28.4 °F 81% 29.96 in 4.0 mi NNW 25.3 mph 35.7 mph 0.00 in Snow Light Snow
9:53 AM 34.0 °F 20.8 °F 28.9 °F 82% 30.00 in 5.0 mi NNW 27.6 mph 35.7 mph 0.00 in Snow Light Snow
10:16 AM 33.8 °F 21.9 °F 28.4 °F 81% 29.99 in 10.0 mi NNW 21.9 mph 27.6 mph 0.00 in   Overcast
10:38 AM 33.8 °F 22.2 °F 28.4 °F 81% 30.01 in 10.0 mi NNW 20.7 mph 29.9 mph 0.00 in   Overcast
10:53 AM 34.0 °F 23.4 °F 28.9 °F 82% 30.06 in 10.0 mi NNW 17.3 mph 27.6 mph 0.00 in   Overcast
11:53 AM 34.0 °F 23.4 °F 28.9 °F 82% 30.08 in 10.0 mi NNW 17.3 mph - N/A   Overcast
12:53 PM 35.1 °F 25.2 °F 28.9 °F 78% 30.09 in 10.0 mi NW 16.1 mph - N/A   Overcast
1:17 PM 35.6 °F 27.1 °F 28.4 °F 75% 30.04 in 10.0 mi NNW 12.7 mph - N/A   Overcast
1:53 PM 37.0 °F 27.0 °F 26.1 °F 65% 30.08 in 10.0 mi NW 18.4 mph - N/A   Overcast
2:53 PM 36.0 °F 26.0 °F 26.1 °F 67% 30.09 in 10.0 mi NW 17.3 mph - N/A   Overcast
3:53 PM 37.0 °F 28.1 °F 26.1 °F 65% 30.09 in 10.0 mi WNW 15.0 mph - N/A   Scattered Clouds
4:53 PM 36.0 °F 29.6 °F 26.1 °F 67% 30.06 in 10.0 mi West 8.1 mph - N/A   Clear
5:53 PM 33.1 °F 26.1 °F 26.1 °F 75% 30.06 in 10.0 mi West 8.1 mph - N/A   Clear
6:53 PM 32.0 °F 24.2 °F 25.0 °F 75% 30.03 in 10.0 mi WSW 9.2 mph - N/A   Clear
7:53 PM 30.9 °F 21.7 °F 25.0 °F 79% 29.98 in 10.0 mi West 11.5 mph - N/A   Clear
8:53 PM 32.0 °F 23.6 °F 25.0 °F 75% 29.94 in 10.0 mi West 10.4 mph - N/A   Clear
9:53 PM 30.9 °F 22.2 °F 25.0 °F 79% 29.94 in 10.0 mi SW 10.4 mph - N/A   Clear
10:53 PM 30.0 °F 23.2 °F 24.1 °F 79% 29.90 in 10.0 mi WSW 6.9 mph - N/A   Clear
11:53 PM 34.0 °F 25.0 °F 21.9 °F 61% 29.85 in 10.0 mi WSW 12.7 mph - N/A   Clear